Location: Flotzheim
(48.8375°N, 10.8136°E)
Time: 04:41:30
(UTC+00:00)

Iridium 4 Rocket - Pass Details

Date: 23 January 2021
Orbit: 583 x 906 km, 86.9° (Epoch: 26 February)

Event Time Altitude Azimuth Distance (km) Brightness Sun altitude
Rises 18:08:13 0° 356° (N) 3,480 6.9 -20.8°
Reaches altitude 10° 18:10:44 10° 356° (N) 2,504 6.1 -21.2°
Maximum altitude 18:16:24 86° 269° (W) 820 3.6 -22.1°
Drops below altitude 10° 18:21:34 10° 181° (S) 2,288 6.0 -23.0°
Sets 18:23:47 0° 181° (S) 3,159 6.7 -23.3°
